Location: Cluj-Napoca
(46.7712°N, 23.6236°E)
Time: 12:54:05
(UTC+02:00)

ISS - Pass Details

Date: 25 January 2020
Orbit: 415 x 422 km, 51.6° (Epoch: 23 February)

Event Time Altitude Azimuth Distance (km) Brightness Sun altitude
Rises 18:34:24 0° 247° (WSW) 2,372 1.9 -13.1°
Reaches altitude 10° 18:36:30 10° 248° (WSW) 1,508 0.5 -13.5°
Maximum altitude 18:39:53 78° 334° (NNW) 437 -3.7 -14.1°
Enters shadow 18:41:32 28° 59° (ENE) 829 -2.8 -14.3°
